Home > Weather > Santa Fe > Past weeks

Flag for USA Past Weather in Santa Fe, New Mexico, USA — Yesterday and Last 2 Weeks

Now
90 °F

Sunny.


Feels Like: 86 °F
Forecast: 62 / 83 °F
Wind: 7 mph from North

Location: Santa Fe County Municipal Airport

Current Time: Jul 25, 2016 at 2:18:48 PM

Latest Report: Jul 25, 2016 at 1:53 PM


Visibility: 10 mi

Pressure: 29.88 "Hg (23.53 "Hg at 2132m altitude)

Humidity: 19%

Dew Point: 43 °F

Location of Santa FeLocation

Past Weather in Santa Fe — Graph

°F

Santa Fe Temperature Yesterday

Maximum temperature yesterday: 95 °F (at 1:53 PM)
Minimum temperature yesterday: 67 °F (at 1:53 AM)
Average temperature yesterday: 78 °F

High & Low Weather Summary for the Past Weeks

 TemperatureHumidityPressure
High99 °F (Jul 23, 3:53 PM)90% (Jul 20, 1:53 AM)30.37 "Hg (Jul 20, 1:53 AM)
Low49 °F (Jul 13, 5:53 AM)4% (Jul 12, 2:53 PM)29.61 "Hg (Jul 10, 7:53 PM)
Average79 °F28%29.87 "Hg
* Reported Jul 10 12:53 PM — Jul 25 12:53 PM, Santa Fe, Weather by CustomWeather, © 2016

Note: Actual official high and low records may vary slightly from our data, if they occured in-between our weather recording intervals... More about our weather records

Advertising

Santa Fe Weather History for the Previous 24 Hours

Scroll right to see more
 ConditionsComfort  
Time TempWeatherWind HumidityBarometerVisibility
12:53 PM
Mon, Jul 25
87 °FSunny.6 mph24%29.91 "Hg10 mi
11:53 AM86 °FSunny.6 mph26%29.96 "Hg10 mi
10:53 AM81 °FSunny.9 mph33%29.98 "Hg10 mi
9:53 AM80 °FSunny.10 mph34%29.99 "Hg10 mi
8:53 AM75 °FSunny.3 mph40%30.02 "Hg10 mi
7:53 AM69 °FSunny.5 mph55%30.03 "Hg10 mi
6:53 AM65 °FClear.6 mph63%30.03 "Hg10 mi
5:53 AM64 °FClear.8 mph63%30.00 "Hg10 mi
4:53 AM66 °FClear.6 mph59%29.98 "Hg10 mi
3:53 AM70 °FClear.6 mph49%29.94 "Hg10 mi
2:53 AM69 °FClear.No wind55%29.94 "Hg10 mi
1:53 AM70 °FPassing clouds.14 mph53%29.88 "Hg10 mi
12:53 AM70 °FPassing clouds.15 mph53%29.91 "Hg10 mi
11:53 PM
Sun, Jul 24
70 °FPassing clouds.3 mph49%29.92 "Hg10 mi
10:53 PM74 °FPassing clouds.12 mph41%29.92 "Hg10 mi
9:53 PM74 °FPassing clouds.12 mph41%29.96 "Hg10 mi
8:53 PM72 °FSunny.13 mph49%29.97 "Hg10 mi
7:53 PM75 °FPassing clouds.16 mph39%29.97 "Hg10 mi
6:53 PM77 °FSunny.17 mph36%29.92 "Hg10 mi
5:53 PM84 °FScattered clouds.18 mph26%29.86 "Hg10 mi
4:53 PM84 °FSunny.17 mph27%29.85 "Hg10 mi
3:53 PM87 °FScattered clouds.21 mph26%29.86 "Hg10 mi
3:04 PM86 °FThundershowers. Partly sunny.14 mph24%30.21 "Hg10 mi
2:53 PM89 °FThunderstorms. Partly sunny.17 mph21%29.81 "Hg10 mi
Weather by CustomWeather, © 2016

See weather overviewHow to use our weather pages